TimePDT,TemperatureF,Dew PointF,Humidity,Sea Level PressureIn,VisibilityMPH,Wind Direction,Wind SpeedMPH,Gust SpeedMPH,PrecipitationIn,Events,Conditions,WindDirDegrees,DateUTC
12:54 AM,73.9,45.0,35,29.75,10.0,NW,9.2,-,N/A,,Clear,320,2013-06-04 07:54:00
1:54 AM,73.9,45.0,35,29.75,10.0,North,8.1,-,N/A,,Clear,350,2013-06-04 08:54:00
2:54 AM,73.0,45.0,37,29.76,10.0,North,9.2,-,N/A,,Clear,350,2013-06-04 09:54:00
3:54 AM,70.0,46.0,42,29.77,10.0,North,8.1,-,N/A,,Clear,350,2013-06-04 10:54:00
4:54 AM,68.0,46.9,47,29.79,10.0,North,8.1,-,N/A,,Clear,350,2013-06-04 11:54:00
5:54 AM,68.0,48.0,49,29.81,10.0,NNE,5.8,-,N/A,,Clear,20,2013-06-04 12:54:00
6:54 AM,71.1,48.9,45,29.83,10.0,North,4.6,-,N/A,,Clear,10,2013-06-04 13:54:00
7:54 AM,73.0,48.9,42,29.84,10.0,NNW,6.9,-,N/A,,Clear,340,2013-06-04 14:54:00
8:54 AM,75.0,48.9,40,29.85,10.0,WNW,5.8,-,N/A,,Clear,300,2013-06-04 15:54:00
9:54 AM,78.1,48.9,36,29.85,10.0,NW,5.8,-,N/A,,Clear,320,2013-06-04 16:54:00
10:54 AM,79.0,50.0,36,29.85,10.0,West,4.6,-,N/A,,Clear,280,2013-06-04 17:54:00
11:54 AM,84.0,51.1,32,29.84,10.0,NNW,10.4,-,N/A,,Clear,330,2013-06-04 18:54:00
12:54 PM,88.0,50.0,27,29.83,10.0,NW,9.2,19.6,N/A,,Clear,310,2013-06-04 19:54:00
1:54 PM,90.0,50.0,25,29.81,10.0,WNW,12.7,20.7,N/A,,Clear,300,2013-06-04 20:54:00
2:54 PM,91.0,48.0,23,29.80,10.0,NW,8.1,-,N/A,,Clear,320,2013-06-04 21:54:00
3:54 PM,91.0,51.1,25,29.79,10.0,NW,5.8,-,N/A,,Clear,310,2013-06-04 22:54:00
4:54 PM,91.9,51.1,25,29.78,10.0,NW,11.5,-,N/A,,Clear,310,2013-06-04 23:54:00
5:54 PM,91.0,51.1,25,29.78,10.0,NNW,5.8,-,N/A,,Clear,330,2013-06-05 00:54:00
6:54 PM,90.0,50.0,25,29.78,10.0,NW,6.9,-,N/A,,Clear,320,2013-06-05 01:54:00
7:54 PM,88.0,52.0,29,29.79,10.0,NNW,4.6,-,N/A,,Clear,340,2013-06-05 02:54:00
8:54 PM,86.0,51.1,30,29.80,10.0,North,4.6,-,N/A,,Clear,360,2013-06-05 03:54:00
9:54 PM,82.0,52.0,35,29.82,10.0,NW,12.7,-,N/A,,Clear,320,2013-06-05 04:54:00
10:54 PM,77.0,52.0,42,29.84,10.0,NNW,6.9,-,N/A,,Clear,340,2013-06-05 05:54:00
11:54 PM,73.9,51.1,45,29.85,10.0,NNW,5.8,-,N/A,,Clear,330,2013-06-05 06:54:00